Kosmos-1622

operational
NORAD ID: 15474 Int'l Des: 1985-003 Owner: GUKOS Country: SU
LEOCIRCULARPOLAR

Über Kosmos-1622

Beschreibung wird geladen...

Live-Position

3D-Globus wird geladen...

Nächste Überflüge

Höhenverlauf

Altitude vs Time

uPlot chart will show altitude changes over time

Zweizeiliger Elementsatz

1 15474U 85003F 26062.24501723 .00000016 00000-0 31485-4 0 9999
2 15474 82.6119 152.3316 0009851 59.5268 329.3056 12.63800188897154
Epoch: 3. März 2026 • Age: 27 hours

Aktueller Status

Höhe 1411.9 km
Geschwindigkeit 7.16 km/s
Subsatellitenpunkt 69.65°N, 34.8°W
Startdatum 15. Jan. 1985
Alter 41.1 years
Typ other

Technische Details

Klassifizierung Payload
Masse 225.00 kg
Trockenmasse 225.00 kg
Gesamtmasse 225.00 kg
Länge 1.60 m
Durchmesser 0.80 m
Spannweite 7.00 m
Form Cyl + Ant
Hersteller NPOPM
Bus-Typ Strela-3
Phasenstatus In Orbit
Besitzer/Staat GUKOS/SU

Große Konstellationen

Loading constellations...